Weather observations for the past three days for
Akun Airport
Imperial (Metric)
Date Time (akdt) Wind (mph) Vis. (mi.) Weather Sky Cond. Temperature (ºF) Relative Humidity Wind Chill (°F) Heat Index (°F) Pressure Precipitation (in)
Air Dwpt 6 hour altimeter (in) sea level (mb) 1 hr 3 hr 6 hr
Max. Min.
15 13:35 N 15 G 21 10.00 Fair CLR 50 46.4 88% 45 29.92 0.0
15 13:15 N 12 10.00 Fair CLR 50 46.4 88% 46 29.92 0.0
15 12:55 NW 14 10.00 Fair CLR 50 44.6 82% 45 29.92 0.0
15 12:35 NW 15 G 23 10.00 Fair CLR 50 44.6 82% 45 29.92 0.0
15 12:15 N 15 10.00 Fair CLR 50 44.6 82% 45 29.92 0.0
15 11:55 N 15 10.00 Fair CLR 51.8 44.6 77% 29.92 0.0
15 11:35 N 13 G 17 10.00 Fair CLR 50 42.8 76% 46 29.92 0.0
15 11:16 N 13 10.00 Fair CLR 50 41 71% 46 29.92 0.0
15 10:55 N 10 G 17 10.00 Fair CLR 50 41 71% 46 29.92 0.0
15 10:35 N 7 10.00 Fair CLR 50 41 71% 48 29.91 0.0
15 10:15 N 6 10.00 Fair CLR 50 41 71% 48 29.91 0.0
15 09:55 Calm 10.00 Fair CLR 50 42.8 76% 29.91 0.0
15 09:35 Calm 10.00 Fair CLR 50 41 71% 29.9 0.0
15 09:15 Calm 10.00 Fair CLR 51.8 41 67% 29.9 0.0
15 08:55 NE 3 10.00 Fair CLR 50 41 71% 29.9 0.0
15 08:35 Calm 10.00 Fair CLR 50 41 71% 29.9 0.0
15 08:15 Calm 10.00 Fair CLR 44.6 41 87% 29.9 0.0
15 07:55 Calm 10.00 Fair CLR 46.4 41 82% 29.89 0.0
15 07:35 N 3 10.00 Fair CLR 46.4 41 82% 29.89 0.0
15 07:15 E 6 10.00 Fair CLR 46.4 37.4 71% 44 29.89 0.0
15 06:55 SW 3 10.00 Fair CLR 46.4 37.4 71% 29.88 0.0
15 06:35 NW 14 10.00 Fair CLR 50 41 71% 45 29.88 0.0
15 06:15 NW 13 G 17 10.00 Fair CLR 50 41 71% 46 29.88 0.0
15 05:55 SW 7 10.00 Fair CLR 46.4 37.4 71% 43 29.88 0.0
15 05:35 W 12 G 17 10.00 Fair CLR 46.4 37.4 71% 42 29.88 0.0
15 05:15 Calm 10.00 Fair CLR 42.8 35.6 76% 29.87 0.0
15 04:55 Calm 10.00 Fair CLR 44.6 35.6 71% 29.87 0.0
15 04:35 Calm 10.00 Fair CLR 46.4 37.4 71% 29.88 0.0
15 04:15 E 7 10.00 Fair CLR 46.4 37.4 71% 43 29.88 0.0
15 03:55 S 6 10.00 Fair CLR 46.4 37.4 71% 44 29.88 0.0
15 03:35 SE 3 10.00 Fair CLR 50 35.6 58% 29.88 0.0
15 03:15 SE 6 10.00 Partly Cloudy SCT120 50 35.6 58% 48 29.88 0.0
15 02:55 SE 6 10.00 Mostly Cloudy BKN120 48.2 37.4 66% 46 29.88 0.0
15 02:35 Calm 10.00 Fair CLR 46.4 37.4 71% 29.88 0.0
15 02:15 Calm 10.00 Fair CLR 48.2 37.4 66% 29.88 0.0
15 01:55 NW 8 10.00 Partly Cloudy SCT046 48.2 37.4 66% 45 29.87 0.0
15 01:35 N 7 10.00 Partly Cloudy SCT046 48.2 37.4 66% 46 29.88 0.0
15 01:15 Calm 10.00 Mostly Cloudy BKN046 46.4 39.2 76% 29.89 0.0
15 00:55 Calm 10.00 Partly Cloudy SCT046 46.4 41 82% 29.89 0.0
15 00:35 N 12 10.00 Fair CLR 46.4 41 82% 42 29.88 0.0
15 00:15 NW 14 10.00 Fair CLR 46.4 41 82% 41 29.89 0.0
14 23:55 NW 16 G 22 10.00 Fair CLR 46.4 41 82% 40 29.88 0.0
14 23:35 NW 18 G 24 10.00 Partly Cloudy SCT040 46.4 41 82% 40 29.87 0.0
14 23:15 NW 20 10.00 Mostly Cloudy BKN040 48.2 39.2 71% 42 29.87 0.0
14 22:55 NW 13 10.00 Overcast OVC040 48.2 41 76% 43 29.87 0.0
14 22:35 N 15 G 18 10.00 Overcast OVC042 50 37.4 62% 45 29.87 0.0
14 22:15 N 14 10.00 Overcast OVC042 50 39.2 67% 45 29.86 0.0
14 21:55 NW 13 G 20 10.00 Overcast OVC042 50 39.2 67% 46 29.86 0.0
14 21:35 N 14 G 18 10.00 Overcast OVC042 50 39.2 67% 45 29.86 0.0
14 21:15 N 14 G 18 10.00 Overcast OVC044 50 41 71% 45 29.86 0.0
14 20:55 N 15 10.00 Mostly Cloudy BKN046 50 41 71% 45 29.85 0.0
14 20:35 N 12 10.00 Mostly Cloudy BKN044 48.2 41 76% 44 29.86 0.0
14 20:15 N 16 G 23 10.00 Partly Cloudy SCT046 50 41 71% 45 29.86 0.0
14 19:56 NW 9 G 16 10.00 Partly Cloudy SCT048 50 41 71% 47 29.85 0.0
14 19:35 NW 8 10.00 Partly Cloudy SCT050 50 41 71% 47 29.85 0.0
14 19:15 NW 20 G 24 10.00 Fair CLR 51.8 41 67% 29.85 0.0
14 18:55 NW 15 G 24 10.00 Partly Cloudy SCT060 50 41 71% 45 29.85 0.0
14 18:35 NW 16 G 26 10.00 Partly Cloudy SCT060 50 42.8 76% 45 29.85 0.0
14 18:16 NW 18 G 24 10.00 Partly Cloudy SCT050 51.8 41 67% 29.85 0.0
14 17:55 NW 17 G 23 10.00 Mostly Cloudy BKN050 51.8 41 67% 29.85 0.0
14 17:35 NW 17 G 25 10.00 Partly Cloudy SCT050 SCT080 53.6 39.2 58% 29.85 0.0
14 17:15 NW 15 G 25 10.00 Fair CLR 51.8 41 67% 29.85 0.0
14 16:55 NW 10 G 16 10.00 Fair CLR 51.8 42.8 72% 29.85 0.0
14 16:35 N 14 G 20 10.00 Fair CLR 53.6 41 63% 29.85 0.0
14 16:15 NW 12 G 17 10.00 Fair CLR 53.6 41 63% 29.85 0.0
14 15:55 NW 7 10.00 Fair CLR 53.6 42.8 67% 29.85 0.0
14 15:35 N 5 10.00 Fair CLR 53.6 42.8 67% 29.85 0.0
14 15:15 W 6 10.00 Partly Cloudy SCT043 53.6 44.6 72% 29.85 0.0
14 14:55 S 7 10.00 Partly Cloudy SCT043 51.8 42.8 72% 29.85 0.0
14 14:35 SW 14 10.00 Fair CLR 53.6 44.6 72% 29.85 0.0
14 14:15 NW 5 10.00 Partly Cloudy SCT085 51.8 42.8 72% 29.85 0.0
14 13:55 NW 5 10.00 Partly Cloudy SCT085 51.8 42.8 72% 29.85 0.0
14 13:35 W 5 10.00 Fair CLR 51.8 42.8 72% 29.85 0.0
14 13:15 NW 7 10.00 Fair CLR 50 42.8 76% 48 29.85 0.0
14 12:55 NW 12 10.00 Fair CLR 50 44.6 82% 46 29.85 0.0
14 12:35 NW 12 10.00 Fair CLR 50 44.6 82% 46 29.85 0.0
14 12:15 N 13 G 21 10.00 Fair CLR 50 42.8 76% 46 29.85 0.0
14 11:55 N 14 10.00 Fair CLR 48.2 42.8 82% 43 29.85 0.0
14 11:35 N 13 7.00 Partly Cloudy SCT085 48.2 42.8 82% 43 29.85 0.0
14 11:15 N 12 10.00 Partly Cloudy SCT085 46.4 44.6 93% 42 29.85 0.0
14 10:55 N 9 7.00 Partly Cloudy SCT085 46.4 44.6 93% 42 29.85 0.0
14 10:35 NW 12 10.00 Partly Cloudy SCT085 46.4 44.6 93% 42 29.85 0.0
14 10:15 N 9 10.00 Partly Cloudy SCT085 46.4 44.6 93% 42 29.85 0.0
14 09:55 N 12 10.00 Overcast OVC085 46.4 42.8 87% 42 29.85 0.0
14 09:35 NW 7 10.00 Overcast OVC085 46.4 42.8 87% 43 29.84 0.0
14 09:15 N 5 10.00 Overcast OVC085 44.6 42.8 93% 43 29.84 0.0
14 08:55 N 7 10.00 Overcast OVC085 44.6 42.8 93% 41 29.85 0.0
14 08:35 Calm 10.00 Overcast OVC075 44.6 44.6 100% 29.85 0.0
14 08:15 N 8 10.00 Overcast OVC075 44.6 44.6 100% 41 29.85 0.0
14 07:55 N 12 G 18 10.00 Partly Cloudy SCT075 44.6 42.8 93% 39 29.85 0.0
14 07:35 N 7 10.00 Partly Cloudy SCT075 44.6 42.8 93% 41 29.85 0.0
14 07:15 N 7 10.00 Fair CLR 44.6 42.8 93% 41 29.85 0.0
14 06:55 Calm 10.00 Fair CLR 44.6 42.8 93% 29.85 0.0
14 06:35 SE 7 10.00 Partly Cloudy SCT065 44.6 42.8 93% 41 29.85 0.0
14 06:15 W 9 10.00 Mostly Cloudy BKN065 50 41 71% 47 29.85 0.0
14 05:55 W 13 G 21 10.00 Overcast OVC065 50 41 71% 46 29.84 0.0
14 05:35 W 18 G 22 10.00 Overcast OVC065 50 41 71% 44 29.85 0.0
14 05:15 W 17 10.00 Overcast OVC065 50 41 71% 45 29.84 0.0
14 04:55 W 20 G 25 10.00 Overcast OVC065 50 41 71% 44 29.84 0.0
14 04:35 W 20 G 25 10.00 Overcast OVC065 50 41 71% 44 29.84 0.0
14 04:15 W 18 G 28 10.00 Overcast OVC065 50 41 71% 44 29.85 0.0
14 03:55 W 18 G 26 10.00 Overcast OVC065 50 41 71% 44 29.85 0.0
14 03:35 W 22 G 30 10.00 Overcast and Breezy OVC065 50 41 71% 44 29.85 0.0
14 03:15 W 20 G 30 10.00 Overcast OVC065 50 41 71% 44 29.85 0.0
14 02:55 W 22 G 30 10.00 Overcast and Breezy OVC065 50 41 71% 44 29.85 0.0
14 02:35 W 22 G 29 10.00 Overcast and Breezy OVC065 50 41 71% 44 29.85 0.0
14 02:15 W 22 G 25 10.00 Overcast and Breezy OVC065 50 41 71% 44 29.85 0.0
14 01:55 W 16 G 29 10.00 Overcast OVC065 50 41 71% 45 29.85 0.0
14 01:35 W 16 G 28 10.00 Overcast OVC055 50 41 71% 45 29.85 0.0
14 01:15 W 22 G 26 10.00 Overcast and Breezy OVC055 50 41 71% 44 29.85 0.0
14 00:55 W 20 G 24 10.00 Overcast OVC055 50 41 71% 44 29.86 0.0
14 00:35 W 17 G 22 10.00 Overcast OVC055 48.2 41 76% 42 29.86 0.0
14 00:15 W 15 G 24 10.00 Overcast SCT050 OVC055 48.2 42.8 82% 43 29.86 0.0
13 23:55 W 17 G 22 10.00 Overcast SCT050 OVC055 48.2 42.8 82% 42 29.85 0.0
13 23:35 W 16 G 21 10.00 Overcast BKN055 OVC070 46.4 42.8 87% 40 29.85 0.0
13 23:15 W 14 G 22 10.00 Overcast BKN055 OVC070 46.4 42.8 87% 41 29.85 0.0
13 22:55 W 14 10.00 Overcast SCT039 OVC049 46.4 42.8 87% 41 29.84 0.0
13 22:35 W 17 G 23 10.00 Overcast SCT039 OVC049 46.4 42.8 87% 40 29.84 0.0
13 22:15 W 17 G 22 10.00 Overcast SCT027 SCT035 OVC049 46.4 44.6 93% 40 29.84 0.0
13 21:55 W 21 10.00 Overcast and Breezy BKN025 BKN035 OVC045 46.4 44.6 93% 39 29.83 0.0
13 21:35 W 22 G 25 10.00 Overcast and Breezy OVC023 46.4 44.6 93% 39 29.83 0.0
13 21:15 W 17 G 26 10.00 Overcast OVC021 46.4 44.6 93% 40 29.84 0.0
13 20:55 W 18 G 23 10.00 Overcast OVC019 48.2 44.6 87% 42 29.84 0.0
13 20:35 W 14 G 18 10.00 Overcast OVC019 46.4 44.6 93% 41 29.84 0.0
13 20:15 W 16 G 23 10.00 Overcast OVC019 46.4 44.6 93% 40 29.84 0.0
13 19:55 W 15 G 23 10.00 Overcast OVC019 46.4 42.8 87% 41 29.84 0.0
13 19:35 W 15 G 23 10.00 Overcast OVC019 46.4 42.8 87% 41 29.84 0.0
13 19:15 W 14 G 20 10.00 Overcast OVC021 46.4 42.8 87% 41 29.84 0.0
13 18:55 W 12 10.00 Overcast OVC021 46.4 42.8 87% 42 29.84 0.0
13 18:35 W 12 10.00 Overcast OVC024 46.4 42.8 87% 42 29.84 0.0
13 18:15 W 14 10.00 Overcast OVC026 46.4 41 82% 41 29.84 0.0
13 17:55 W 13 G 17 10.00 Overcast OVC026 46.4 41 82% 41 29.84 0.0
13 17:35 W 14 10.00 Overcast OVC028 46.4 41 82% 41 29.84 0.0
13 17:15 W 14 10.00 Overcast OVC026 46.4 41 82% 41 29.83 0.0
13 16:55 NW 18 G 24 10.00 Overcast OVC027 46.4 41 82% 40 29.83 0.0
13 16:35 W 20 10.00 Overcast OVC029 46.4 41 82% 40 29.82 0.0
13 16:15 NW 22 G 26 10.00 Overcast and Breezy OVC029 46.4 39.2 76% 39 29.82 0.0
13 15:35 NW 16 G 24 10.00 Overcast OVC027 46.4 41 82% 40 29.82 0.0
13 15:15 W 23 G 29 10.00 Overcast and Breezy OVC027 46.4 41 82% 39 29.81 0.0
13 14:55 NW 21 10.00 Overcast and Breezy OVC027 44.6 41 87% 37 29.81 0.0
13 14:35 NW 15 10.00 Overcast OVC029 46.4 41 82% 41 29.81 0.0
13 14:15 NW 20 10.00 Overcast OVC029 46.4 41 82% 40 29.81 0.0
13 13:55 NW 21 G 29 10.00 Overcast and Breezy BKN027 OVC033 46.4 41 82% 39 29.81 0.0
13 13:35 NW 24 G 31 10.00 Overcast and Breezy BKN027 OVC033 46.4 41 82% 39 29.8 0.0
13 13:15 NW 20 G 30 10.00 Overcast OVC030 46.4 41 82% 40 29.79 0.0
13 12:55 NW 21 10.00 Overcast and Breezy OVC030 46.4 41 82% 39 29.78 0.0
13 12:35 W 18 10.00 Overcast SCT024 OVC031 46.4 42.8 87% 40 29.78 0.0
13 12:15 W 15 G 24 10.00 Overcast SCT021 BKN028 OVC034 46.4 44.6 93% 41 29.77 0.0
13 11:55 W 22 G 26 10.00 Overcast and Breezy SCT020 OVC026 46.4 44.6 93% 39 29.76 0.0
13 11:35 W 13 10.00 Overcast BKN023 OVC029 46.4 42.8 87% 41 29.77 0.0
13 11:15 W 14 10.00 Overcast SCT027 BKN040 OVC046 46.4 42.8 87% 41 29.76 0.0
13 10:55 W 15 G 21 10.00 Overcast SCT028 OVC046 46.4 42.8 87% 41 29.77 0.0
13 10:35 W 17 G 28 10.00 Overcast SCT026 OVC042 46.4 41 82% 40 29.76 0.0
13 10:15 W 22 G 25 10.00 Overcast and Breezy OVC040 44.6 41 87% 37 29.75 0.0
13 09:55 NW 20 G 26 10.00 Mostly Cloudy SCT023 BKN038 44.6 41 87% 37 29.75 0.0
13 09:35 NW 21 10.00 Mostly Cloudy and Breezy BKN023 44.6 41 87% 37 29.74 0.0
13 09:15 NW 21 10.00 Overcast and Breezy OVC023 42.8 41 93% 35 29.74 0.0
13 08:55 NW 28 G 32 10.00 Overcast and Windy OVC021 42.8 42.8 100% 33 29.73 0.0
13 08:35 NW 25 G 30 10.00 Overcast and Breezy OVC023 42.8 42.8 100% 34 29.72 0.0
13 08:15 NW 26 G 30 10.00 Overcast and Windy OVC023 42.8 42.8 100% 34 29.72 0.0
13 07:55 NW 23 G 26 10.00 Overcast and Breezy OVC024 42.8 42.8 100% 34 29.73 0.0
13 07:35 NW 20 G 28 10.00 Mostly Cloudy BKN024 42.8 42.8 100% 35 29.72 0.0
13 07:15 NW 18 10.00 Mostly Cloudy SCT005 SCT008 BKN024 41 41 100% 33 29.72 0.0
13 06:55 NW 26 G 33 4.00 Light Drizzle and Windy SCT005 SCT009 OVC019 41 41 100% 31 29.71 0.0
13 06:35 NW 25 G 30 10.00 Overcast and Breezy OVC019 42.8 41 93% 34 29.7 0.0
13 06:15 NW 22 G 29 10.00 Overcast and Breezy OVC019 42.8 41 93% 34 29.7 0.0
13 05:55 NW 18 10.00 Overcast OVC019 42.8 42.8 100% 35 29.7 0.0
13 05:35 NW 21 10.00 Overcast and Breezy SCT015 OVC022 42.8 41 93% 35 29.69 0.0
13 05:15 NW 21 10.00 Overcast and Breezy OVC017 42.8 42.8 100% 35 29.68 0.0
13 04:55 NW 18 10.00 Overcast SCT013 OVC019 42.8 42.8 100% 35 29.68 0.0
13 04:35 NW 13 10.00 Overcast OVC016 42.8 42.8 100% 37 29.68 0.0
13 04:15 NW 14 10.00 Overcast OVC016 42.8 42.8 100% 36 29.68 0.0
13 03:55 NW 13 10.00 Overcast BKN008 OVC016 42.8 42.8 100% 37 29.68 0.0
13 03:35 NW 15 10.00 Overcast BKN008 OVC014 42.8 42.8 100% 36 29.68 0.0
13 03:15 NW 13 10.00 Overcast OVC014 42.8 42.8 100% 37 29.67 0.0
13 02:55 NW 12 10.00 Overcast OVC016 42.8 42.8 100% 37 29.67 0.0 0.01
13 02:35 NW 10 10.00 Overcast BKN016 OVC021 42.8 42.8 100% 38 29.67 0.0 0.01
13 02:15 NW 8 10.00 Overcast SCT009 BKN016 OVC021 42.8 42.8 100% 39 29.67 0.0 0.01
13 01:55 NW 8 10.00 Overcast SCT009 OVC015 42.8 42.8 100% 39 29.68 0.0 0.01
13 01:35 NW 8 10.00 Light Rain OVC007 42.8 42.8 100% 39 29.68 0.0 0.01
13 01:15 NW 7 10.00 Light Rain SCT007 OVC014 42.8 42.8 100% 39 29.68 0.0 0.01
13 00:55 NW 5 7.00 Light Rain OVC012 42.8 42.8 100% 41 29.68 0.0 0.01
13 00:35 NW 6 7.00 Light Rain OVC010 42.8 42.8 100% 40 29.68 0.0
13 00:15 NW 3 7.00 Light Rain OVC010 44.6 44.6 100% 29.68 0.0
12 23:55 NW 6 10.00 Overcast OVC012 44.6 44.6 100% 42 29.68 0.0
12 23:35 NW 8 10.00 Overcast OVC012 42.8 42.8 100% 39 29.68 0.0
12 23:15 W 8 10.00 Overcast OVC012 42.8 42.8 100% 39 29.68 0.0
12 22:55 NW 7 10.00 Overcast OVC012 42.8 42.8 100% 39 29.67 0.0
12 22:35 NW 9 1.25 Fog/Mist BKN003 OVC012 42.8 42.8 100% 38 29.69 0.0
12 22:15 NW 7 5.00 Fog/Mist SCT003 OVC012 42.8 42.8 100% 39 29.68 0.0
12 21:55 NW 9 10.00 Overcast OVC012 44.6 44.6 100% 40 29.68 0.0
12 21:35 NW 9 10.00 Overcast OVC012 44.6 44.6 100% 40 29.69 0.0
12 21:15 W 9 10.00 Overcast OVC012 44.6 44.6 100% 40 29.69 0.0
12 20:55 NW 9 10.00 Overcast OVC012 44.6 44.6 100% 40 29.69 0.0
12 20:35 NW 10 10.00 Overcast OVC012 44.6 44.6 100% 40 29.69 0.0
12 20:15 NW 10 10.00 Overcast OVC014 44.6 44.6 100% 40 29.7 0.0
12 19:55 NW 9 10.00 Overcast OVC014 44.6 44.6 100% 40 29.69 0.0
12 19:35 NW 9 10.00 Overcast BKN002 OVC016 44.6 44.6 100% 40 29.7 0.0
12 19:15 NW 13 10.00 Overcast OVC002 44.6 44.6 100% 39 29.7 0.0
12 18:55 NW 15 3.00 Fog/Mist OVC002 44.6 44.6 100% 38 29.69 0.0
12 18:35 NW 18 G 23 10.00 Partly Cloudy SCT002 44.6 44.6 100% 37 29.69 0.0
12 18:15 NW 17 G 22 10.00 Partly Cloudy SCT019 46.4 46.4 100% 40 29.69 0.0
12 17:55 NW 17 G 21 10.00 Mostly Cloudy BKN021 46.4 46.4 100% 40 29.69 0.0
12 17:35 NW 16 10.00 Overcast OVC021 46.4 46.4 100% 40 29.69 0.0
12 17:15 NW 15 10.00 Overcast OVC021 46.4 46.4 100% 41 29.71 0.0
12 16:55 NW 15 10.00 Mostly Cloudy BKN021 46.4 46.4 100% 41 29.7 0.0
12 16:35 NW 15 G 21 10.00 Mostly Cloudy BKN023 48.2 48.2 100% 43 29.69 0.0
12 16:15 NW 17 10.00 Fair CLR 46.4 46.4 100% 40 29.69 0.0
12 15:55 NW 18 10.00 Fair CLR 46.4 46.4 100% 40 29.69 0.0
12 15:35 NW 20 G 23 10.00 Partly Cloudy SCT027 46.4 46.4 100% 40 29.69 0.0
12 15:15 NW 16 10.00 Fair CLR 46.4 46.4 100% 40 29.68 0.0
12 14:55 NW 20 10.00 Fair CLR 46.4 46.4 100% 40 29.68 0.0
12 14:35 NW 17 G 24 10.00 Fair CLR 46.4 46.4 100% 40 29.67 0.0
12 14:15 NW 18 10.00 Fair CLR 46.4 46.4 100% 40 29.68 0.0
12 13:55 NW 20 G 23 10.00 Fair CLR 46.4 46.4 100% 40 29.66 0.0
Date Time (akdt) Wind (mph) Vis. (mi.) Weather Sky Cond. Air Dwpt Max. Min. Relative Humidity Wind Chill (°F) Heat Index (°F) altimeter (in) sea level (mb) 1 hr 3 hr 6 hr
6 hour
Temperature (ºF) Pressure Precipitation (in)